Location: Lourdes
(43.1000°N, 0.0500°W)
Time: 09:32:28
(UTC+00:00)

Okean O Rocket - Pass Details

Date: 30 November 2020
Orbit: 622 x 645 km, 98.2° (Epoch: 25 January)

Event Time Altitude Azimuth Distance (km) Brightness Sun altitude
Rises 17:33:38 0° 169° (SSE) 2,894 5.1 -12.0°
Reaches altitude 10° 17:35:49 10° 170° (S) 1,994 4.3 -12.4°
Maximum altitude 17:40:09 78° 257° (WSW) 649 1.7 -13.1°
Drops below altitude 10° 17:44:34 10° 344° (NNW) 2,023 4.2 -13.9°
Sets 17:46:47 0° 346° (NNW) 2,939 5.0 -14.3°
